sat.trackr.live / text

‹ back to catalog

RCM-1

NORAD 44322 · 2019-033A

PAYLOAD ACTIVE UNKNOWN

§ Identity

Operator
Country
CA
Launch date
2019-06-12
Launch site
AFWTR
Launch vehicle
Mass (kg)
RCS (m²)

External: N2YO · Heavens-Above · Gunter

§ Orbital elements

Epoch: 2026-05-25T06:34:54.611616Z

Period
96.48 min
Inclination
97.7608°
Eccentricity
0.0001449
Mean motion
14.92588346 rev/d
Perigee alt
588.9 km
Apogee alt
590.9 km
Semi-major
6,968.0 km
B*
1.2602e-6
RAAN
153.0421°
Arg perigee
90.2304°
Mean anomaly
269.9081°
Rev number
37,866

§ Raw data

RCM-11 44322U 19033A   26145.27424319 -.00000043  00000+0  12602-5 0  99942 44322  97.7608 153.0421 0001449  90.2304 269.9081 14.92588346378661

JSON: /api/v1/satellites/44322 · /tle

For live sub-satellite position, see the globe view (requires WebGL).

§ Visibility from observer

Set your observer location to see the next 7 days of passes ≥ 10°. The values pass through the URL so the page stays shareable.

No JS? Fill the form by hand. The geolocation button needs JavaScript.